(216193) = 2006 TL117

Discovered at Apache Point on 2006-10-03 by A. C. Becker.

Orbit

Orbit type: Main Belt

Note: WebGL enabled browser required.

epoch2023-02-25.0
epoch JD2460000.5
perihelion date2019-06-29.41474
perihelion JD2458663.91474
argument of perihelion (°)7.77590
ascending node (°)159.28221
inclination (°)12.95080
eccentricity0.0728191
perihelion distance (AU)2.8541635
Tisserand w.r.t. Jupiter3.2
ΔV w.r.t. Earth (km/sec)11.3
semimajor axis (AU)3.0783242
mean anomaly (°)243.90965
mean daily motion (°/day)0.18248720
aphelion distance (AU)3.302
period (years)5.4
P-vector [x]-0.97338017
P-vector [y]0.19637372
P-vector [z]0.11818799
Q-vector [x]-0.21504677
Q-vector [y]-0.96087549
Q-vector [z]-0.17456568
absolute magnitude15.71
phase slope0.15
uncertainty0
referenceMPO 729745
observations used367
oppositions16
arc length (days)7203
first opposition used2003
last opposition used2022
residual rms (arc-secs)0.82
perturbers coarse indicatorM-v
perturbers precise indicator003El
first observation date used2003-03-06.0
last observation date used2022-11-24.0
computer nameMPCLINUX
JD of orbit computation2456760.918974
perihelion JD uncertainty (days)2.1284E-04
argument of perihelion uncertainty (°)4.6482E-05
ascending node uncertainty (°)1.9096E-05
inclination uncertainty (°)5.2057E-06
eccentricity uncertainty 4.8010E-08
perihelion distance uncertainty (AU)1.5147E-07
Minimum Orbit Intersection Distances (in AU)
for orbit epoch: 2460000.5, reference: E2022-WH1
Mercury2.46193
Venus2.13505
Earth1.86242
Mars1.19024
Jupiter1.67001
Saturn6.06497
Uranus15.5877
Neptune26.5964

Observations

383 total observations over interval: 2003 03 06.21997 – 2022 11 24.391025
These data are available for download (format description).

Date (UT) J2000 RA J2000 Dec Magn Location Ref
2003 03 06.21997 10 25 57.53 +09 18 32.2 18.7 R 699 – Lowell Observatory-LONEOS MPS 218730
2003 03 06.23497 10 25 56.86 +09 18 41.9   699 – Lowell Observatory-LONEOS MPS 218730
2003 03 06.24992 10 25 56.34 +09 18 49.8   699 – Lowell Observatory-LONEOS MPS 218730
2003 03 06.26751 10 25 55.61 +09 18 57.7   699 – Lowell Observatory-LONEOS MPS 218730
2003 03 30.234620 10 13 24.550 +12 19 08.28 20.31 V 645 – Apache Point-Sloan Digital Sky Survey MPS 281316
2003 03 30.238092 10 13 24.481 +12 19 09.52 20.92   645 – Apache Point-Sloan Digital Sky Survey MPS 281316
2004 05 28.39094 16 50 52.56 -03 06 21.4 20.1 V 691 – Steward Observatory, Kitt Peak-Spacewatch MPS 218730
2004 05 28.41750 16 50 51.29 -03 06 18.3 20.0 V 691 – Steward Observatory, Kitt Peak-Spacewatch MPS 218730
2004 05 28.44719 16 50 49.86 -03 06 14.8 20.5 V 691 – Steward Observatory, Kitt Peak-Spacewatch MPS 218730
2004 06 26.23531 16 30 06.78 -03 12 48.6 20.4 V 691 – Steward Observatory, Kitt Peak-Spacewatch MPS 218730
2004 06 26.26649 16 30 05.65 -03 12 52.7 20.6 V 691 – Steward Observatory, Kitt Peak-Spacewatch MPS 218730
2004 06 26.29446 16 30 04.67 -03 12 56.6 21.0 V 691 – Steward Observatory, Kitt Peak-Spacewatch MPS 218730
2005 08 24.35704 21 41 41.18 -09 15 31.3 20.9   644 – Palomar Mountain/NEAT MPS 218730
2005 08 24.37853 21 41 40.24 -09 15 40.2 20.9   644 – Palomar Mountain/NEAT MPS 218730
2005 08 24.40508 21 41 39.10 -09 15 51.1 20.9   644 – Palomar Mountain/NEAT MPS 218730
2006 10 03.43172 02 42 37.75 +01 07 28.1 21.5   705 – Apache Point MPS 214507
2006 10 03.43255 02 42 37.73 +01 07 27.8 20.8 V 705 – Apache Point MPS 214507
2006 10 04.36131 02 42 11.28 +01 01 02.2 21.2   705 – Apache Point MPS 214507
2006 10 04.36214 02 42 11.26 +01 01 01.9 20.8 V 705 – Apache Point MPS 214507
2006 10 12.39631 02 37 47.00 +00 05 20.9 20.5   705 – Apache Point MPS 214507
2006 10 12.39714 02 37 46.97 +00 05 20.5 20.4 V 705 – Apache Point MPS 214507
2006 10 13.43193 02 37 08.81 -00 01 45.8 20.7   705 – Apache Point MPS 214507
2006 10 13.43277 02 37 08.77 -00 01 46.1 20.4 V 705 – Apache Point MPS 214507
2006 10 16.44405 02 35 13.28 -00 22 13.8 21.1   705 – Apache Point MPS 214507
2006 10 16.44488 02 35 13.25 -00 22 14.2 20.6 V 705 – Apache Point MPS 214507
2006 10 17.42515 02 34 34.33 -00 28 48.4 21.0   705 – Apache Point MPS 214507
2006 10 17.42598 02 34 34.30 -00 28 48.7 20.3 V 705 – Apache Point MPS 214507
2006 10 20.43049 02 32 31.41 -00 48 36.1 20.7   705 – Apache Point MPS 214507
2006 10 20.43131 02 32 31.37 -00 48 36.5 20.3 V 705 – Apache Point MPS 214507
2006 10 21.43313 02 31 49.35 -00 55 04.1 20.9   705 – Apache Point MPS 214507
2006 10 21.43396 02 31 49.32 -00 55 04.3 20.5 V 705 – Apache Point MPS 214507
2009 03 24.43345 14 52 35.94 -01 52 57.3 20.0 V G96 – Mt. Lemmon Survey MPS 281316
2009 03 24.44155 14 52 35.79 -01 52 53.2 19.9 V G96 – Mt. Lemmon Survey MPS 281316
2009 03 24.44971 14 52 35.61 -01 52 49.8 20.2 V G96 – Mt. Lemmon Survey MPS 281316
2009 03 24.45804 14 52 35.50 -01 52 46.0 19.9 V G96 – Mt. Lemmon Survey MPS 281316
2009 04 24.87530 14 35 39.98 +01 57 27.5 18.9 V A50 – Andrushivka Astronomical Observatory MPS 286437
2009 04 24.87683 14 35 39.92 +01 57 27.7 19.1 V A50 – Andrushivka Astronomical Observatory MPS 286437
2009 04 24.87810 14 35 39.91 +01 57 28.0 19.1 V A50 – Andrushivka Astronomical Observatory MPS 286437
2009 04 24.93138 14 35 37.45 +01 57 47.8 19.4 V A50 – Andrushivka Astronomical Observatory MPS 286437
2009 05 01.31329 14 31 00.55 +02 34 45.8 19.7 V G96 – Mt. Lemmon Survey MPS 286435
2009 05 01.32236 14 31 00.15 +02 34 48.7 19.7 V G96 – Mt. Lemmon Survey MPS 286435
2009 05 01.33140 14 30 59.72 +02 34 51.5 19.3 V G96 – Mt. Lemmon Survey MPS 286435
2009 05 01.34032 14 30 59.32 +02 34 52.6 18.6 V G96 – Mt. Lemmon Survey MPS 286435
2010 04 22.484584 20 08 53.64 -08 30 54.0   C51 – WISE MPS 326246
2010 04 22.616894 20 08 58.73 -08 30 21.2   C51 – WISE MPS 326246
2010 04 22.749198 20 09 03.75 -08 29 51.2   C51 – WISE MPS 326246
2010 04 22.815413 20 09 06.42 -08 29 35.0   C51 – WISE MPS 326246
2010 04 22.881502 20 09 08.84 -08 29 19.5   C51 – WISE MPS 326246
2010 04 22.947718 20 09 11.470 -08 29 05.28   C51 – WISE MPS 903547
2010 04 23.013807 20 09 13.78 -08 28 48.6   C51 – WISE MPS 326246
2010 04 23.01393 20 09 13.89 -08 28 48.1   C51 – WISE MPS 326246
2010 04 23.080022 20 09 16.38 -08 28 31.5   C51 – WISE MPS 326246
2010 04 23.212326 20 09 21.48 -08 28 01.0   C51 – WISE MPS 326246
2010 04 23.476935 20 09 31.394 -08 26 58.99   C51 – WISE MPS 903547
2011 09 26.42926 00 40 34.836 -04 43 11.00 21.0 w F51 – Pan-STARRS 1, Haleakala MPS 394057
2011 09 26.44329 00 40 34.251 -04 43 17.21 20.9 w F51 – Pan-STARRS 1, Haleakala MPS 394057
2011 09 26.46369 00 40 33.402 -04 43 26.59 20.8 w F51 – Pan-STARRS 1, Haleakala MPS 394057
2011 09 26.47804 00 40 32.803 -04 43 33.05 20.9 w F51 – Pan-STARRS 1, Haleakala MPS 394057
2012 11 07.601463 06 01 41.145 +06 13 07.30 20.1 i F51 – Pan-STARRS 1, Haleakala MPS 441286
2012 11 07.613556 06 01 40.929 +06 13 04.36 20.1 i F51 – Pan-STARRS 1, Haleakala MPS 441286
2012 11 24.58286 05 53 56.755 +05 16 02.28 20.5 g F51 – Pan-STARRS 1, Haleakala MPS 444675
2012 11 24.59499 05 53 56.289 +05 16 00.22 20.5 g F51 – Pan-STARRS 1, Haleakala MPS 444675
2012 12 07.37498 05 44 44.235 +04 53 23.42 20.3 g F51 – Pan-STARRS 1, Haleakala MPS 447514
2012 12 07.38797 05 44 43.588 +04 53 22.62 20.1 g F51 – Pan-STARRS 1, Haleakala MPS 447514
2012 12 07.47630 05 44 39.210 +04 53 17.95 20.2 r F51 – Pan-STARRS 1, Haleakala MPS 447514
2012 12 07.48884 05 44 38.601 +04 53 17.22 20.0 r F51 – Pan-STARRS 1, Haleakala MPS 447514
2012 12 10.38876 05 42 17.975 +04 51 17.67 19.8 r F51 – Pan-STARRS 1, Haleakala MPS 447514
2012 12 10.40085 05 42 17.365 +04 51 17.31 19.6 r F51 – Pan-STARRS 1, Haleakala MPS 447514
2012 12 10.41589 05 42 16.596 +04 51 16.95 20.1 g F51 – Pan-STARRS 1, Haleakala MPS 447514
2012 12 21.11861 05 33 21.15 +04 54 55.0 19.8 G G45 – Space Surveillance Telescope, Atom Site MPS 1607678
2012 12 21.14110 05 33 20.10 +04 54 56.5 19.9 G G45 – Space Surveillance Telescope, Atom Site MPS 1607678
2012 12 21.16687 05 33 18.79 +04 54 57.5 19.8 G G45 – Space Surveillance Telescope, Atom Site MPS 1607678
2012 12 21.26432 05 33 13.75 +04 55 05.1 20.1 G G45 – Space Surveillance Telescope, Atom Site MPS 1607678
2012 12 22.37278 05 32 18.802 +04 56 29.81 19.8 i F51 – Pan-STARRS 1, Haleakala MPS 448707
2012 12 22.38622 05 32 18.110 +04 56 31.01 19.8 i F51 – Pan-STARRS 1, Haleakala MPS 448707
2013 01 08.29589 05 19 44.528 +05 39 48.04 20.2 w F51 – Pan-STARRS 1, Haleakala MPS 450722
2013 01 08.30969 05 19 43.988 +05 39 51.17 20.4 w F51 – Pan-STARRS 1, Haleakala MPS 450722
2013 01 08.32351 05 19 43.446 +05 39 54.11 20.4 w F51 – Pan-STARRS 1, Haleakala MPS 450722
2013 12 14.46051 11 52 33.21 +00 26 33.1 20.7 V G96 – Mt. Lemmon Survey MPS 493126
2013 12 14.46976 11 52 33.75 +00 26 31.4 20.8 V G96 – Mt. Lemmon Survey MPS 493126
2013 12 14.47901 11 52 34.24 +00 26 29.4 20.4 V G96 – Mt. Lemmon Survey MPS 493126
2013 12 14.48826 11 52 34.77 +00 26 27.5 21.3 V G96 – Mt. Lemmon Survey MPS 493126
2014 01 02.46108 12 07 42.45 -00 07 10.7 20.4 V G96 – Mt. Lemmon Survey MPS 494912
2014 01 02.46722 12 07 42.73 -00 07 10.8 20.6 V G96 – Mt. Lemmon Survey MPS 494912
2014 01 02.47336 12 07 42.89 -00 07 11.2 20.9 V G96 – Mt. Lemmon Survey MPS 494912
2014 01 02.47951 12 07 43.18 -00 07 11.7 20.1 V G96 – Mt. Lemmon Survey MPS 494912
2014 02 20.37727 12 15 11.26 +02 55 20.2 20.0 V 691 – Steward Observatory, Kitt Peak-Spacewatch MPS 502174
2014 02 20.39499 12 15 10.84 +02 55 28.2 20.0 V 691 – Steward Observatory, Kitt Peak-Spacewatch MPS 502174
2014 02 20.41271 12 15 10.42 +02 55 36.7 20.2 V 691 – Steward Observatory, Kitt Peak-Spacewatch MPS 502174
2014 02 26.13385 12 12 43.80 +03 42 25.7 19.8   J43 – Oukaimeden Observatory, Marrakech MPS 503615
2014 02 26.14409 12 12 43.45 +03 42 31.0 20.0   J43 – Oukaimeden Observatory, Marrakech MPS 503615
2014 02 26.15432 12 12 43.19 +03 42 36.3 19.8   J43 – Oukaimeden Observatory, Marrakech MPS 503615
2014 02 26.16456 12 12 42.86 +03 42 41.5 19.9   J43 – Oukaimeden Observatory, Marrakech MPS 503615
